Location: ??? ????
(38.0580°N, 23.1536°E)
Time: 07:01:00
(UTC+00:00)

Resurs 1-3 - Pass Details

Date: 13 December 2025
Orbit: 613 x 615 km, 97.7° (Epoch: 20 January)

Event Time Altitude Azimuth Distance (km) Brightness Sun altitude
Rises 16:56:36 0° 165° (SSE) 2,869 7.0 -20.6°
Reaches altitude 10° 16:58:46 10° 165° (SSE) 1,969 6.1 -21.0°
Maximum altitude 17:03:03 85° 79° (E) 623 3.4 -21.9°
Drops below altitude 10° 17:07:23 10° 349° (N) 1,984 6.1 -22.7°
Sets 17:09:34 0° 349° (N) 2,893 7.0 -23.1°
